Location: Borz?cin
(51.1714°N, 19.6030°E)
Time: 21:44:07
(UTC+00:00)

ALOS 2 - Pass Details

Date: 19 May 2025
Orbit: 630 x 632 km, 97.9° (Epoch: 16 June)

Event Time Altitude Azimuth Distance (km) Brightness Sun altitude
Exits shadow 20:41:38 11° 103° (ESE) 1,921 4.7 -14.4°
Maximum altitude 20:44:29 20° 60° (ENE) 1,469 4.5 -14.6°
Drops below altitude 10° 20:47:41 10° 13° (NNE) 2,027 5.9 -14.8°
Sets 20:50:21 0° 357° (N) 2,940 7.3 -15.0°
